Terminal Aerodrome Forecast
Issued by NWS

Home | Current Version | Previous Version | Text Only | Print | Product List | Glossary On
Versions: 1 2 3 4 5 6 7 8 9 10 11 12 13 14 15 16 17 18 19 20 21 22
000
FTUS43 KABR 282300
TAFPIR
TAF
KPIR 282334Z 2900/2924 07014KT P6SM BKN008 OVC012
      TEMPO 2900/2903 -SN SCT008 OVC015
     FM290600 04014KT 1SM -SN BR OVC015
     FM291100 36011KT 3SM -SN BR SCT015 OVC060
     FM291800 33010KT P6SM SKC=

USA.gov is the U.S. government's official web portal to all federal, state and local government web resources and services.